Weather History for KILM - October, 2012

Change the Weather History Date:

Saturday, October 6, 2012

  Actual Average Record
Temperature  
Mean Temperature 73 °F 68 °F  
Max Temperature 85 °F 78 °F 94 °F (1954)
Min Temperature 60 °F 58 °F 43 °F (1935)
Degree Days  
Heating Degree Days 0 1  
Month to date heating degree days 0 6  
Since 1 July heating degree days 0 11  
Cooling Degree Days 8 5  
Month to date cooling degree days 66 32  
Year to date cooling degree days 2141 1949  
Growing Degree Days 22 (Base 50)    
Moisture  
Dew Point 63 °F    
Average Humidity 74    
Maximum Humidity 100    
Minimum Humidity 47    
Precipitation  
Precipitation 0.00 in 0.16 in 1.18 in (2005)
Month to date precipitation 1.04 1.03  
Year to date precipitation 38.08 47.84  
Sea Level Pressure  
Sea Level Pressure 29.97 in    
Wind  
Wind Speed 2 mph (SW)    
Max Wind Speed 14 mph    
Max Gust Speed 18 mph    
Visibility 10 miles    
Events      
T = Trace of Precipitation, MM = Missing Value Source: NWS Daily Summary

Daily Weather History Graph

Daily Weather History Graph

Search for Another Location

Airport or City:

Trip Planner

Search our weather history database for the weather conditions in past years. The results will help you decide how hot, cold, wet, or windy it might be!

Date:

Astronomy

Oct. 06, 2012 Rise Set
Actual Time 7:10 AM EDT 6:48 PM EDT
Civil Twilight 6:45 AM EDT 7:13 PM EDT
Nautical Twilight 6:16 AM EDT 7:42 PM EDT
Astronomical Twilight 5:46 AM EDT 8:11 PM EDT
Moon 11:13 PM EDT (10/6) 12:51 PM EDT (10/6)
Length of Visible Light 12h 28m
Length of Day
11h 38m
Waning Gibbous, 65% of the Moon is Illuminated
Oct 6
Waning Gibbous
Oct 8
Last Quarter
Oct 15
New
Oct 21
First Quarter
Oct 29
Full

Hourly Weather History & Observations

Time (EDT) Temp. Heat Index Dew Point Humidity Pressure Visibility Wind Dir Wind Speed Gust Speed Precip Events Conditions
12:53 AM 64.0 °F - 62.1 °F 93% 30.03 in 10.0 mi Calm Calm - N/A   Clear
1:53 AM 64.0 °F - 61.0 °F 90% 30.02 in 10.0 mi Calm Calm - N/A   Clear
2:53 AM 63.0 °F - 61.0 °F 93% 30.01 in 9.0 mi Calm Calm - N/A   Clear
3:53 AM 61.0 °F - 60.1 °F 97% 29.99 in 7.0 mi Calm Calm - N/A   Clear
4:53 AM 62.1 °F - 60.1 °F 93% 29.99 in 9.0 mi Calm Calm - N/A   Clear
5:53 AM 61.0 °F - 59.0 °F 93% 29.99 in 10.0 mi Calm Calm - N/A   Clear
6:53 AM 61.0 °F - 59.0 °F 93% 29.99 in 10.0 mi Calm Calm - N/A   Clear
7:53 AM 62.1 °F - 59.0 °F 90% 29.99 in 7.0 mi Calm Calm - N/A   Clear
8:53 AM 70.0 °F - 64.0 °F 81% 30.00 in 10.0 mi Calm Calm - N/A   Clear
9:53 AM 75.2 °F - 64.4 °F 69% 30.00 in 10.0 mi West 4.6 mph - N/A   Clear
10:53 AM 78.1 °F - 64.0 °F 62% 30.00 in 10.0 mi SW 5.8 mph - N/A   Clear
11:53 AM 81.0 °F 82.2 °F 63.0 °F 54% 29.98 in 10.0 mi WSW 5.8 mph - N/A   Clear
12:53 PM 82.0 °F 83.0 °F 62.1 °F 51% 29.96 in 10.0 mi WSW 3.5 mph - N/A   Clear
1:53 PM 82.0 °F 82.7 °F 61.0 °F 49% 29.93 in 10.0 mi WSW 4.6 mph - N/A   Scattered Clouds
2:53 PM 82.9 °F 83.3 °F 61.0 °F 47% 29.91 in 10.0 mi Calm Calm - N/A   Scattered Clouds
3:53 PM 84.0 °F 85.4 °F 64.0 °F 51% 29.89 in 10.0 mi South 6.9 mph - N/A   Scattered Clouds
4:53 PM 81.0 °F 82.7 °F 64.9 °F 58% 29.89 in 10.0 mi SSE 9.2 mph - N/A   Partly Cloudy
5:53 PM 79.0 °F - 64.9 °F 62% 29.90 in 10.0 mi South 6.9 mph - N/A   Partly Cloudy
6:53 PM 75.9 °F - 64.9 °F 69% 29.92 in 10.0 mi South 3.5 mph - N/A   Clear
7:53 PM 73.0 °F - 66.0 °F 79% 29.94 in 10.0 mi Calm Calm - N/A   Clear
8:53 PM 71.1 °F - 66.0 °F 84% 29.95 in 10.0 mi Calm Calm - N/A   Clear
9:53 PM 70.0 °F - 66.0 °F 87% 29.96 in 10.0 mi Calm Calm - N/A   Clear
10:53 PM 69.1 °F - 66.0 °F 90% 29.96 in 10.0 mi Calm Calm - N/A   Clear
11:53 PM 68.0 °F - 66.0 °F 93% 29.96 in 10.0 mi Calm Calm - N/A   Clear